Wetbulb
42.89 41.39 38.73 39.89 40.32 39.56 38.91 37.58 36.55 39.66 42.62 41.07 40.83 40.82 43.02 45.14 45.57 45.30 46.42 47.86 48.89 49.57 52.61 52.93 53.82 55.21 55.98 58.46 59.37 60.28 59.32 63.10 68.39 69.68 69.58 68.40 67.53 67.80 67.80 68.93 68.99 68.91 68.32 68.54
40.48 37.56 41.61 41.63 40.63 38.90 38.45 37.03 37.12 39.82 42.23 41.26 40.36 39.91 43.52 45.29 45.81 46.61 46.31 47.35 48.48 49.16 49.37 50.21 52.83 55.55 56.73 57.42 59.80 60.34 61.33 61.93 65.19 68.26 69.72 70.39 70.20 69.85 69.68 69.93 70.69 70.50 69.23 68.04
37.93 39.63 41.96 40.24 39.11 38.40 38.81 37.10 37.07 36.74 40.09 41.29 39.86 38.28 40.22 44.03 45.46 46.49 47.33 48.45 48.48 47.06 47.45 49.86 52.59 55.15 56.32 56.33 57.51 58.77 59.89 61.09 63.30 66.49 68.56 71.11 71.15 70.53 70.07 70.25 70.25 70.44 70.45 68.57
39.41 41.01 39.90 39.08 38.21 40.00 35.66 40.59 39.45 37.96 36.12 32.30 39.32 30.59 38.27 41.57 42.89 44.14 45.75 46.99 47.44 46.77 49.03 51.34 52.46 52.90 53.67 54.91 56.43 57.38 59.54 60.02 60.46 62.91 65.26 69.00 67.25 67.51 69.88 71.18 71.63 71.73 71.05 70.81
38.22 39.16 38.82 37.88 38.98 41.44 37.93 40.87 39.59 38.45 36.27 35.51 35.76 32.38 36.81 40.68 39.79 41.94 45.08 46.83 47.91 48.77 51.14 51.70 51.05 51.46 52.19 53.81 54.58 56.13 57.91 59.68 60.35 61.06 63.13 63.10 67.79 68.26 70.25 70.87 72.92 73.30 72.64 72.33
40.51 42.09 40.97 40.54 41.30 42.58 41.82 39.32 38.78 36.51 35.22 29.14 33.49 32.95 34.30 37.99 40.52 42.13 44.84 46.46 47.63 50.17 51.35 51.43 51.98 52.17 52.23 53.64 54.43 55.25 56.87 57.85 59.82 59.71 61.03 64.07 66.76 68.46 67.64 69.66 69.01 69.12 70.59 72.07
38.34 39.06 41.11 43.02 39.54 40.25 39.47 36.67 30.03 28.37 28.38 28.52 34.54 32.15 35.31 40.73 42.72 43.64 43.81 45.91 48.82 50.66 50.79 50.65 51.22 51.63 52.17 52.67 53.72 54.51 55.72 56.71 58.61 58.93 59.60 61.40 65.26 68.35 69.79 70.15 68.88 69.59 69.26 70.32
33.79 32.10 38.77 42.03 39.79 37.49 37.57 36.44 30.14 21.65 25.17 28.92 35.15 29.27 35.85 42.01 44.15 45.06 45.90 48.28 49.82 50.05 50.43 50.83 51.36 51.82 52.64 54.10 54.63 54.69 54.54 55.19 57.19 58.11 58.80 59.76 63.49 63.34 67.11 70.05 69.20 69.02 69.76 71.56
33.59 33.09 40.60 41.44 41.89 40.89 35.93 33.20 36.73 31.77 32.50 27.64 31.49 35.26 39.54 42.23 42.63 44.10 45.43 47.16 47.70 49.27 50.01 50.51 51.40 52.26 52.79 55.46 55.54 55.73 55.74 55.89 56.66 57.90 59.15 58.99 60.19 63.73 65.58 68.67 68.48 67.53 71.01 71.45
37.71 31.69 38.50 40.30 41.72 41.17 39.02 39.93 31.41 32.87 22.88 21.52 29.03 30.79 32.30 37.87 40.10 42.98 43.92 45.44 47.29 48.67 49.53 50.59 51.43 52.16 53.86 55.13 55.03 54.81 55.78 56.18 57.23 58.03 58.71 59.02 60.88 61.14 63.92 67.45 67.95 67.65 70.29 71.62
39.75 35.94 34.81 38.15 36.51 35.65 35.94 34.71 35.21 34.16 31.84 25.27 24.34 30.50 39.93 39.96 41.70 42.41 44.05 46.35 46.50 47.78 49.75 50.51 51.66 52.73 53.30 53.22 53.76 54.32 53.78 54.83 56.60 58.31 59.51 60.17 61.69 62.83 65.64 67.26 68.58 68.98 71.19 71.71
40.70 37.03 31.91 34.18 40.14 40.64 39.09 36.58 36.52 29.82 28.11 31.33 30.25 30.39 42.52 42.77 43.41 44.54 44.64 45.52 47.04 49.74 50.32 50.82 51.65 52.37 52.30 51.99 52.51 53.40 53.28 53.69 56.44 58.59 60.91 61.90 62.36 63.63 65.73 67.35 68.52 69.94 70.69 70.74
40.62 35.20 29.27 31.19 35.04 37.30 35.38 37.03 37.28 36.68 34.89 29.62 26.55 31.26 42.27 43.41 43.74 44.71 44.40 45.76 47.86 48.84 49.68 50.46 51.73 51.81 51.17 50.91 50.41 51.82 52.54 53.44 54.41 54.70 59.84 63.50 62.34 63.19 65.89 67.33 69.05 69.79 69.95 70.44
41.91 36.69 32.85 28.11 31.68 35.25 32.79 35.39 37.14 35.73 30.04 31.47 31.62 34.10 38.98 41.32 42.43 44.11 45.13 46.52 48.29 48.48 48.98 49.59 50.00 49.46 49.93 50.47 49.84 50.55 51.91 53.13 53.39 53.01 57.96 63.25 63.69 63.97 66.20 67.68 68.78 69.69 70.31 70.15
39.46 32.79 34.85 35.51 36.27 36.19 35.08 34.50 35.49 34.24 35.35 30.22 33.66 34.30 38.80 41.77 43.20 44.77 46.11 47.22 46.95 47.38 47.86 48.54 48.71 49.12 49.31 49.19 51.13 51.95 51.86 52.57 53.30 51.54 54.54 63.42 64.07 65.34 66.27 67.10 68.67 70.02 70.34 70.26
39.96 32.63 34.68 31.95 35.79 35.84 33.76 35.96 36.51 36.19 36.48 35.78 36.15 35.73 43.20 44.85 45.71 44.96 45.68 46.18 45.84 46.88 47.73 48.37 49.01 49.22 49.28 48.93 49.84 51.11 50.73 51.19 52.22 51.15 52.76 62.14 63.13 64.04 66.49 67.94 69.01 69.84 69.65 70.19
36.20 34.96 31.96 27.48 33.41 33.22 29.37 34.54 35.96 36.61 38.53 38.17 34.47 39.52 43.77 42.93 43.79 44.61 45.77 46.07 46.26 46.78 47.23 47.52 48.51 48.67 49.65 49.77 50.07 49.88 50.62 52.36 51.18 51.02 52.94 61.54 63.21 64.75 66.59 67.81 68.34 68.77 68.77 69.54
34.24 33.35 32.54 28.30 31.11 22.90 35.65 40.45 40.44 38.48 39.47 41.04 40.98 41.93 43.34 43.74 45.37 46.46 47.25 46.73 46.98 47.50 47.40 48.04 48.78 48.51 48.78 49.28 49.21 48.49 49.59 49.26 50.86 51.71 55.67 62.96 64.02 65.63 67.05 67.44 67.25 67.28 67.17 68.89
37.52 34.50 30.57 27.62 28.36 32.64 35.13 39.10 38.57 37.01 37.59 42.10 41.46 42.14 43.17 44.58 45.43 45.03 48.02 48.83 48.51 48.74 49.33 49.37 49.94 49.32 48.51 48.72 49.08 48.64 48.95 50.06 50.47 60.36 63.17 63.65 65.99 65.97 65.45 65.43 65.52 66.16 66.93 67.39
35.98 35.96 32.46 31.59 27.11 24.94 34.92 39.89 43.19 41.64 32.87 42.53 42.10 41.53 42.12 43.68 37.67 41.63 48.05 48.78 49.01 50.01 50.41 49.33 49.92 49.22 48.61 48.56 48.91 48.67 49.72 53.12 58.95 63.41 63.83 65.72 66.01 65.54 65.50 65.58 65.52 66.45 67.70 66.79
32.82 32.15 28.93 29.17 27.12 32.69 39.88 41.13 43.75 31.29 34.46 42.94 42.76 42.61 43.28 41.73 43.73 46.70 48.84 48.64 49.35 49.64 49.77 50.36 49.91 48.14 48.66 49.53 49.47 49.34 49.69 54.10 59.48 60.75 64.62 66.42 67.67 67.20 65.60 64.81 66.03 65.99 63.95 62.72
30.10 31.24 31.47 32.15 29.28 26.72 42.87 41.64 35.70 40.94 43.98 43.04 42.94 43.82 43.94 44.78 46.09 47.02 47.79 47.81 48.02 48.14 48.74 49.66 48.57 47.78 49.18 49.72 49.27 48.65 49.14 54.34 60.44 60.67 63.94 65.11 65.98 65.38 65.03 65.39 65.19 62.98 62.61 60.97
32.25 36.34 33.25 34.59 34.36 42.81 44.26 42.47 44.11 44.26 42.20 43.08 43.19 44.08 43.48 43.60 45.01 46.53 46.27 46.57 46.96 47.46 47.97 48.72 47.49 48.17 48.76 49.80 49.82 48.35 50.08 53.17 59.67 62.30 62.70 63.58 64.37 64.26 64.75 64.25 65.03 63.36 62.79 63.16
36.91 38.99 35.10 34.48 37.90 39.45 41.57 43.30 43.75 44.70 44.38 45.68 45.84 44.97 44.61 43.90 45.46 45.25 45.69 45.36 45.48 46.12 46.39 48.00 47.28 47.55 48.24 50.03 48.97 49.24 51.21 57.49 59.21 59.74 61.59 62.37 62.24 62.28 63.51 63.79 63.97 62.99 62.70 61.98
36.52 37.83 35.75 35.82 38.88 39.35 40.45 42.36 44.28 45.01 45.45 45.67 45.87 44.58 43.45 43.12 43.39 44.56 43.52 43.24 43.37 43.37 44.77 46.34 46.42 48.16 48.00 48.98 48.60 49.92 52.58 57.87 59.60 58.88 60.77 60.38 61.25 60.75 57.00 55.26 61.09 63.36 63.81 61.00
38.29 35.15 33.06 31.95 37.70 37.51 38.87 43.57 46.29 44.91 43.99 44.41 43.07 41.48 41.73 41.94 41.21 41.14 40.95 42.14 41.58 41.73 43.70 44.40 47.44 47.94 47.71 48.74 49.27 50.36 53.16 57.06 60.12 60.77 60.04 60.20 58.46 57.97 57.19 57.64 54.69 41.91 45.59 44.93
MSLP
1011.57 1011.29 1011.08 1011.25 1011.55 1011.57 1011.44 1011.22 1010.83 1010.49 1010.13 1009.86 1008.99 1008.67 1008.25 1007.98 1007.68 1007.34 1007.03 1006.77 1006.69 1006.63 1006.75 1006.45 1006.39 1006.54 1006.60 1006.69 1006.51 1006.76 1006.15 1005.28 1006.22 1006.71 1006.37 1006.42 1005.72 1005.95 1006.19 1006.16 1006.32 1006.92 1007.52 1008.30
1011.72 1011.11 1011.13 1011.38 1011.44 1011.51 1011.47 1011.18 1010.79 1010.68 1010.46 1010.15 1009.10 1008.30 1007.96 1007.21 1006.79 1006.54 1006.42 1006.54 1006.59 1006.75 1006.95 1006.74 1006.72 1006.72 1006.71 1006.66 1006.55 1006.45 1006.13 1005.43 1006.06 1006.41 1007.04 1005.42 1005.01 1004.73 1005.05 1005.58 1005.66 1006.17 1007.10 1007.73
1011.27 1011.04 1011.21 1011.38 1011.30 1011.31 1011.20 1011.13 1011.01 1010.92 1010.62 1010.18 1009.38 1007.46 1007.18 1006.69 1006.31 1006.21 1006.14 1006.11 1006.10 1006.22 1006.23 1006.39 1006.54 1006.76 1006.56 1006.45 1006.65 1006.36 1006.16 1006.24 1006.34 1006.56 1005.42 1005.12 1004.51 1004.60 1004.56 1004.58 1005.08 1005.37 1005.46 1005.01
1011.38 1011.21 1011.16 1011.18 1011.06 1011.23 1010.99 1011.17 1011.22 1011.20 1011.04 1010.11 1010.17 1007.63 1006.78 1006.28 1005.91 1005.97 1005.91 1005.80 1005.82 1006.26 1006.64 1006.70 1006.60 1006.73 1006.46 1006.46 1006.59 1006.24 1005.72 1005.43 1005.23 1004.99 1004.44 1004.01 1003.55 1003.32 1003.30 1003.42 1003.85 1004.08 1004.50 1004.57
1010.83 1010.92 1011.01 1010.87 1010.63 1010.97 1010.87 1011.29 1011.36 1011.35 1011.08 1010.76 1009.70 1009.02 1006.42 1006.24 1005.74 1005.68 1005.68 1005.83 1005.98 1006.26 1006.67 1006.64 1006.82 1007.14 1007.17 1007.02 1006.32 1005.86 1005.45 1004.79 1004.11 1003.87 1003.67 1003.48 1003.18 1002.96 1002.78 1002.78 1003.03 1003.37 1003.91 1003.87
1010.60 1010.87 1010.83 1010.49 1010.60 1010.84 1011.18 1011.32 1011.32 1011.56 1011.18 1010.13 1009.18 1008.72 1006.12 1005.66 1005.20 1005.41 1005.38 1005.49 1005.97 1006.25 1006.64 1007.13 1007.42 1007.60 1007.17 1006.88 1006.47 1005.93 1005.09 1004.66 1003.99 1003.78 1003.30 1003.21 1002.91 1002.62 1002.43 1002.12 1002.71 1002.61 1003.27 1003.94
1010.55 1010.45 1010.48 1010.65 1010.66 1011.10 1011.19 1011.45 1010.90 1010.66 1010.33 1009.24 1009.36 1008.41 1006.20 1005.89 1005.57 1005.31 1005.13 1005.27 1005.82 1006.20 1006.62 1006.91 1006.97 1006.76 1006.49 1006.05 1005.67 1005.56 1005.25 1004.43 1003.71 1003.27 1002.73 1002.71 1002.48 1002.12 1001.88 1001.40 1001.60 1002.02 1002.39 1002.75
1010.38 1010.24 1010.44 1010.62 1010.57 1010.68 1011.16 1011.63 1011.65 1010.95 1010.26 1009.28 1009.05 1006.99 1005.21 1005.55 1005.62 1005.54 1005.39 1005.65 1005.75 1005.78 1005.94 1006.14 1006.41 1006.33 1005.96 1005.61 1005.56 1005.19 1004.68 1004.10 1003.23 1002.92 1002.16 1002.05 1002.18 1001.36 1001.10 1000.56 1000.60 1000.97 1001.09 1001.18
1010.80 1010.63 1010.71 1010.79 1010.86 1011.10 1011.47 1011.82 1012.27 1011.78 1011.33 1010.52 1008.26 1006.36 1005.71 1004.99 1005.08 1005.01 1005.11 1005.33 1005.38 1005.65 1005.79 1005.92 1005.62 1005.91 1005.84 1005.34 1004.95 1004.49 1003.82 1003.25 1002.71 1001.74 1001.46 1001.22 1001.08 1000.63 1000.37 999.92 999.83 1000.11 1000.46 1000.25
1011.31 1011.18 1010.99 1010.88 1011.08 1011.15 1011.14 1011.75 1012.34 1012.56 1011.46 1009.79 1007.57 1006.17 1004.97 1004.76 1004.70 1004.89 1004.83 1004.91 1004.85 1005.05 1005.08 1005.35 1005.59 1005.31 1004.50 1004.21 1004.20 1003.41 1003.07 1002.73 1002.26 1001.78 1001.29 1000.73 1000.07 999.66 999.35 999.20 998.79 999.36 999.58 999.95
1011.83 1012.01 1011.46 1011.54 1010.95 1010.71 1011.38 1011.45 1012.05 1012.30 1011.92 1010.30 1008.14 1005.18 1005.03 1004.84 1004.77 1004.87 1004.84 1004.72 1004.63 1004.60 1004.49 1004.59 1004.67 1004.50 1004.22 1003.59 1002.92 1002.67 1002.65 1002.01 1001.47 1001.05 1000.29 999.83 999.24 998.59 998.28 998.01 998.06 998.27 998.83 999.29
1011.95 1012.12 1011.41 1010.93 1010.66 1011.01 1010.94 1010.98 1011.30 1011.49 1011.10 1010.66 1009.41 1004.72 1004.99 1004.82 1004.86 1004.97 1004.85 1004.52 1004.36 1004.26 1004.10 1004.06 1003.93 1003.78 1003.39 1003.26 1002.55 1001.47 1001.34 1000.96 1000.42 999.78 999.05 998.62 998.13 997.58 997.20 997.18 997.20 997.54 997.72 998.36
1012.19 1012.16 1011.51 1010.48 1010.93 1011.19 1010.77 1010.68 1010.93 1011.27 1011.34 1010.20 1009.26 1005.06 1004.98 1004.82 1004.55 1004.48 1004.63 1004.49 1004.07 1003.69 1003.32 1003.27 1003.32 1003.17 1002.93 1002.78 1002.10 1001.05 1000.18 999.88 999.64 999.40 998.27 997.16 996.61 996.20 995.86 996.09 996.38 996.69 996.94 997.70
1012.45 1012.27 1011.70 1010.94 1010.27 1010.84 1010.55 1010.34 1010.36 1010.52 1010.24 1008.65 1007.83 1005.02 1004.57 1004.35 1004.11 1003.96 1003.97 1003.87 1003.56 1003.13 1002.81 1002.53 1002.35 1002.39 1002.30 1002.10 1001.67 1000.85 999.78 999.23 998.68 998.12 997.03 995.62 994.94 994.59 994.58 995.01 995.39 995.98 996.35 996.96
1012.57 1011.91 1011.77 1011.08 1010.62 1010.47 1009.91 1009.31 1009.12 1009.05 1008.40 1008.15 1006.67 1006.00 1004.09 1003.80 1003.40 1003.29 1003.22 1003.23 1002.96 1002.49 1002.13 1001.84 1001.77 1001.52 1001.18 1001.09 1000.44 999.77 998.97 998.10 997.24 996.67 995.58 993.76 993.52 993.56 993.64 994.02 994.56 995.18 995.60 996.30
1012.26 1011.54 1011.28 1010.64 1010.25 1009.85 1009.05 1008.01 1007.62 1007.27 1006.96 1006.61 1005.71 1004.90 1003.97 1003.47 1003.09 1002.73 1002.59 1002.53 1002.32 1001.98 1001.57 1001.23 1001.27 1001.12 1000.58 1000.11 999.38 998.51 997.65 996.83 996.02 995.06 994.11 992.85 992.32 992.37 992.50 993.07 993.87 994.50 995.34 995.98
1012.10 1011.80 1011.53 1010.28 1009.87 1009.27 1007.84 1005.63 1005.53 1005.33 1005.25 1005.06 1004.24 1003.35 1003.10 1002.90 1002.62 1002.44 1002.06 1002.09 1001.82 1001.35 1001.04 1000.84 1000.73 1000.37 999.64 999.08 998.77 997.37 996.52 995.23 994.32 993.42 992.19 991.44 991.11 991.24 991.69 992.39 993.38 994.05 994.98 995.76
1011.89 1012.06 1012.01 1010.55 1009.92 1007.99 1005.41 1005.09 1004.85 1004.61 1004.24 1004.06 1003.74 1003.23 1002.97 1002.79 1002.55 1002.30 1001.89 1001.44 1001.12 1000.90 1000.52 1000.38 1000.14 999.65 999.05 998.65 997.65 996.63 996.00 994.40 992.84 991.77 990.70 989.54 989.77 990.13 990.80 991.87 992.86 993.98 994.96 995.93
1011.24 1011.77 1011.46 1010.53 1008.75 1006.67 1005.55 1004.49 1004.57 1004.45 1003.58 1003.61 1003.41 1003.27 1002.87 1002.53 1002.08 1001.55 1001.14 1000.75 1000.78 1000.58 1000.07 999.66 999.46 999.10 998.12 998.14 997.50 996.30 995.32 993.72 989.17 988.70 987.97 988.35 988.63 989.60 990.35 991.65 992.63 993.84 994.92 996.02
1010.75 1011.36 1011.37 1010.09 1008.56 1006.63 1005.36 1005.18 1005.12 1005.06 1003.74 1003.72 1003.96 1003.61 1003.02 1002.47 1001.40 1000.16 1000.70 1000.52 1000.23 1000.13 999.58 999.09 998.80 998.58 997.41 997.05 996.68 995.44 993.45 989.80 984.66 987.20 987.40 988.05 988.83 989.64 990.24 991.48 992.64 993.84 994.99 995.84
1010.78 1011.00 1010.65 1009.83 1008.47 1006.49 1005.38 1005.39 1005.31 1004.97 1004.31 1004.11 1004.17 1003.82 1003.12 1002.43 1001.81 1000.59 1000.43 999.79 999.50 999.80 999.53 998.71 998.26 997.41 996.66 996.22 994.84 993.73 991.99 990.30 988.46 988.18 987.97 988.24 988.75 989.87 990.99 992.03 992.96 993.94 995.06 996.03
1010.83 1010.13 1009.68 1009.21 1007.84 1006.27 1005.73 1005.68 1005.71 1004.93 1004.32 1004.55 1003.98 1003.58 1002.91 1002.24 1001.13 1000.58 999.96 999.14 998.75 998.20 998.69 998.42 997.50 996.62 995.91 995.56 995.06 993.74 992.55 991.35 990.10 989.50 988.79 989.03 989.77 990.68 991.59 992.20 993.32 994.43 995.28 996.84
1010.19 1009.89 1009.70 1009.10 1007.10 1005.89 1005.77 1005.69 1005.63 1005.47 1004.92 1004.16 1003.87 1003.23 1002.81 1001.80 1000.57 1000.06 999.54 999.07 998.76 998.46 997.79 997.89 997.48 996.64 996.00 995.53 995.44 994.48 993.40 992.62 991.31 990.60 990.04 990.22 990.60 991.30 992.01 992.57 993.72 994.77 995.90 997.08
1010.06 1010.00 1009.55 1009.10 1007.30 1006.87 1006.30 1005.72 1005.35 1004.87 1004.31 1003.69 1003.39 1002.91 1002.11 1001.22 1000.05 999.14 998.81 998.50 998.29 998.16 997.57 996.88 996.36 995.94 995.39 995.39 995.02 994.81 993.93 992.65 991.96 991.43 990.93 990.94 991.23 991.84 992.75 993.87 994.59 995.40 996.38 997.39
1010.92 1010.54 1009.76 1008.73 1007.57 1007.08 1006.37 1005.69 1004.94 1004.14 1003.74 1003.28 1002.80 1002.32 1001.45 1000.58 999.44 998.96 998.41 998.26 998.18 998.08 997.71 997.06 996.33 995.58 995.24 994.97 994.21 994.08 993.55 992.53 992.15 992.05 991.66 991.57 991.81 992.59 993.56 995.23 995.74 996.66 997.57 997.62
1011.29 1011.21 1010.73 1009.28 1008.24 1007.64 1006.03 1004.73 1003.93 1003.43 1002.93 1002.54 1002.08 1001.37 1000.97 1000.51 999.49 999.32 998.90 998.34 997.88 997.44 996.98 996.35 995.50 995.36 994.90 994.26 993.92 993.63 993.18 992.55 992.08 991.88 991.99 992.23 992.66 993.76 994.63 995.56 997.21 998.74 998.70 998.93
Wind_Speed
2 5 6 4 4 3 3 4 6 5 7 8 12 18 17 17 16 17 14 10 9 7 7 3 4 6 7 8 9 5 6 5 3 7 6 9 10 10 10 10 14 12 8 8
3 8 6 5 3 4 4 5 7 7 6 11 14 20 18 17 15 17 16 14 9 5 3 3 4 6 7 10 10 9 5 3 3 6 9 6 5 8 10 9 10 11 10 8
4 1 5 4 3 5 5 7 6 9 8 12 12 13 5 8 11 10 12 9 5 6 8 4 7 9 9 11 12 12 11 8 6 10 8 9 7 5 6 10 10 13 15 15
5 0 5 5 4 6 8 5 6 8 8 9 6 10 10 14 6 5 4 8 9 4 3 7 8 9 11 13 13 14 14 12 9 8 7 10 10 11 10 9 11 11 14 11
3 3 6 8 10 9 6 1 6 8 12 11 13 8 4 3 6 1 6 7 9 6 6 7 10 12 13 13 15 15 15 15 14 11 9 9 11 10 11 10 10 11 9 14
13 1 5 7 1 8 3 4 8 4 4 8 4 8 4 4 8 5 9 9 6 7 6 7 9 10 12 13 12 14 16 16 15 13 11 11 13 12 12 10 10 9 10 12
5 6 2 4 6 4 3 4 6 4 5 4 4 10 10 10 11 15 16 13 9 5 7 9 11 13 14 17 18 15 15 18 16 15 13 13 14 15 15 13 10 10 11 11
7 9 6 5 4 3 4 5 5 6 5 7 9 11 3 6 10 13 13 8 10 10 11 13 11 12 17 18 18 19 19 18 16 16 16 13 14 12 11 12 10 9 10 11
5 6 1 6 1 4 5 7 2 8 9 9 8 11 13 14 8 4 5 3 8 10 15 13 15 14 14 15 17 18 20 19 18 18 14 14 14 14 13 14 10 10 11 9
1 7 5 4 1 5 9 8 5 3 5 7 6 17 13 14 11 5 8 12 13 18 17 11 10 14 16 14 15 18 20 19 19 19 17 15 16 15 15 14 12 14 11 10
4 5 3 3 7 8 6 8 4 3 4 5 9 6 3 8 13 11 13 10 19 18 16 13 12 14 15 18 20 14 18 21 19 18 18 18 18 17 16 15 14 14 13 13
4 4 9 13 11 7 8 10 10 7 7 7 11 20 13 15 12 7 13 19 18 15 14 13 15 16 18 18 17 17 18 20 19 18 19 19 19 17 16 16 15 14 15 15
6 5 7 7 5 4 6 11 10 9 4 15 12 14 4 8 19 21 21 16 15 14 16 14 13 16 18 20 16 18 20 20 19 16 19 20 19 18 17 16 16 16 16 16
4 6 12 14 10 1 6 9 12 14 10 15 18 30 26 25 22 19 18 17 13 15 13 13 13 17 18 18 15 16 20 20 20 16 18 21 19 20 17 16 16 16 16 17
5 13 16 20 22 21 24 26 24 22 23 19 22 24 28 23 23 19 17 13 13 16 13 13 15 17 19 18 18 19 19 21 20 17 18 21 19 18 17 17 16 16 16 16
6 11 12 15 13 16 19 25 25 26 27 25 27 27 25 21 15 14 12 11 14 16 17 15 16 19 21 18 19 21 22 23 21 21 18 22 19 19 18 17 17 16 16 16
5 6 3 12 8 11 14 25 23 22 19 17 18 18 14 16 15 14 14 12 16 19 19 16 18 17 18 18 16 22 23 24 23 22 21 22 21 20 19 18 19 17 15 15
16 13 7 10 10 11 8 3 5 7 11 14 16 18 14 13 15 11 14 16 17 17 17 17 16 15 17 16 16 19 24 27 23 24 30 21 22 20 19 16 16 15 14 17
20 15 6 5 9 13 15 8 2 6 12 7 11 9 16 19 17 16 14 17 19 18 19 17 17 17 16 14 13 20 21 23 31 17 14 19 20 18 18 18 18 16 16 14
9 10 4 4 6 4 2 2 3 2 13 6 9 16 20 19 17 15 16 20 20 18 17 18 18 18 17 15 14 18 18 23 15 8 13 17 17 18 19 18 16 15 14 14
3 4 10 9 7 7 5 3 4 4 6 12 19 20 21 19 17 24 21 22 20 16 18 18 18 17 18 16 19 18 19 19 14 12 9 12 15 15 16 16 14 15 14 14
2 4 2 4 6 6 3 2 6 13 19 17 23 21 19 22 25 22 23 23 21 21 18 17 18 17 17 18 17 18 18 19 10 11 4 11 13 11 12 17 14 15 16 15
3 3 4 5 6 13 17 16 15 16 18 22 17 17 18 22 25 23 22 22 21 20 18 17 16 17 17 16 14 16 17 18 7 7 6 9 13 11 11 15 15 14 13 13
4 3 5 8 2 14 21 19 17 19 18 18 21 20 21 25 27 28 23 22 20 19 20 20 20 18 17 16 14 11 15 14 2 4 6 10 12 13 14 10 10 12 11 12
7 8 7 12 16 15 15 15 21 23 19 22 20 24 27 29 27 26 23 23 19 18 19 19 19 15 17 18 14 12 14 11 4 1 3 8 10 12 11 9 8 11 11 11
1 3 3 7 19 18 20 24 25 24 20 22 25 23 21 21 18 17 19 18 17 18 17 16 16 15 17 16 14 12 12 13 6 5 4 7 11 9 8 10 10 18 11 13
Wind_Direction
49 215 214 194 214 260 233 237 266 276 291 305 293 292 296 285 269 263 262 261 272 259 255 294 4 347 350 333 339 354 312 350 184 214 228 231 234 225 225 225 222 225 219 227
233 243 224 210 251 218 213 257 280 283 271 298 292 291 283 275 267 259 253 238 239 210 256 282 324 339 337 327 324 325 320 2 300 286 239 232 222 220 223 232 224 206 184 176
236 125 155 229 240 220 241 255 284 293 314 284 297 281 236 230 277 250 242 236 270 282 303 323 336 339 343 339 328 322 315 291 240 234 254 240 242 233 214 219 208 194 196 191
254 135 205 211 243 220 275 216 259 276 296 307 337 287 273 280 296 222 310 315 301 293 299 316 329 334 344 331 321 317 315 308 292 286 264 247 245 242 233 218 226 213 207 189
217 217 243 253 267 190 261 215 267 272 276 293 256 257 270 211 251 347 296 285 291 287 315 329 340 335 325 322 316 314 311 308 309 303 283 268 250 249 246 240 227 218 216 198
257 224 245 250 214 195 136 256 269 225 247 244 239 245 186 219 202 241 308 296 301 309 329 331 329 325 322 318 311 309 308 300 301 295 290 266 254 246 249 224 221 205 208 206
221 223 214 209 207 155 167 281 296 250 205 271 162 280 256 216 233 279 295 295 313 306 316 321 323 325 327 318 310 302 294 293 293 290 287 275 259 252 241 238 226 203 201 199
254 245 203 173 242 256 217 245 257 277 265 291 286 255 232 211 271 286 287 280 296 312 329 321 320 322 325 324 315 306 301 292 290 279 284 275 263 256 251 241 230 224 216 206
202 242 250 221 206 218 149 217 339 264 262 270 244 261 267 267 286 305 299 271 300 314 323 315 320 321 322 324 321 316 306 296 287 283 284 275 264 250 246 239 219 219 221 198
224 274 235 271 268 206 236 144 197 190 258 265 255 276 266 288 298 325 317 325 337 326 318 300 297 315 321 321 312 327 314 295 287 280 272 266 258 246 239 235 218 214 205 189
175 237 218 244 212 233 189 208 193 249 235 272 297 261 227 277 292 304 314 322 323 319 312 296 291 305 309 320 306 307 310 300 291 282 270 260 254 244 235 229 221 208 200 194
194 229 263 275 269 261 249 245 221 233 198 233 278 276 272 274 294 305 305 316 317 314 309 290 288 305 308 314 306 308 308 299 291 291 275 259 253 241 228 223 216 205 200 193
177 208 281 276 168 149 210 200 207 230 253 242 263 268 133 238 293 295 302 303 304 307 304 302 296 305 308 309 308 306 305 297 294 291 276 268 248 235 221 215 208 201 194 183
151 243 244 257 282 273 250 219 220 247 257 265 250 279 287 287 292 295 300 303 296 300 299 305 311 312 308 303 295 295 302 295 293 290 280 266 241 225 213 206 198 193 185 177
250 253 252 258 265 265 266 267 266 255 253 254 271 274 280 294 302 299 294 282 297 303 292 298 310 314 314 300 293 295 304 298 298 294 288 271 236 216 204 196 189 186 177 178
197 260 253 260 262 258 260 262 258 256 257 260 262 266 273 284 299 291 275 273 299 305 290 286 305 305 309 309 298 303 307 298 300 290 281 276 231 211 195 183 182 172 173 168
212 221 232 262 278 280 266 254 255 255 247 245 252 271 305 305 308 300 288 281 301 308 300 290 304 300 306 310 303 315 305 300 297 282 283 257 213 197 184 173 172 164 160 157
240 244 241 270 280 247 254 305 255 256 259 240 262 275 301 317 312 285 275 286 303 305 298 293 298 298 304 307 310 309 297 288 285 278 261 205 194 183 167 160 158 149 154 162
224 227 234 237 220 285 295 286 245 210 278 276 279 315 322 318 306 277 278 298 304 298 299 297 296 302 300 295 283 278 284 282 291 237 177 180 171 161 150 155 152 151 152 153
195 216 209 218 253 263 285 102 142 189 276 111 340 318 318 316 299 296 309 304 301 297 300 297 299 303 300 302 301 286 284 286 360 109 143 151 153 152 146 147 144 146 142 133
172 168 218 243 262 270 283 252 200 243 347 324 327 315 303 296 291 300 295 300 298 296 298 298 302 303 309 313 318 318 326 326 345 357 109 123 134 135 138 138 133 131 125 117
258 286 196 228 244 262 58 312 290 318 306 312 308 302 294 299 295 296 295 296 303 302 300 297 302 309 310 319 325 320 320 321 340 337 59 121 120 130 139 129 126 123 120 120
293 315 299 242 271 313 312 309 312 307 295 290 290 287 292 285 288 288 291 294 296 299 297 290 294 301 300 310 318 313 309 316 338 325 113 121 121 116 120 125 131 122 127 133
277 292 260 311 280 298 303 300 297 291 290 294 299 296 293 290 288 289 292 292 295 295 294 295 299 294 292 298 301 289 296 285 330 21 96 120 116 119 115 117 131 128 133 139
284 308 283 273 284 300 272 287 291 294 292 294 297 299 295 292 285 282 291 294 295 296 292 290 284 281 290 297 292 297 300 298 184 233 94 124 120 110 101 76 102 133 137 138
286 315 285 287 299 288 286 292 296 303 301 300 302 294 291 291 296 295 285 284 283 278 280 265 268 278 288 284 288 294 303 291 228 219 166 126 108 97 109 111 83 39 70 87